GFSNE_250_spd_114.txt.gz
Wind_Speed
44 44 41 40 38 42 41 47 50 48 53 61 64 65 63 60 59 56 55 53 48 45 48 46 43 41 38 38 37 35 37 40 52 53 52 46 44 42
46 44 42 42 42 45 47 51 49 48 58 63 66 68 67 63 59 59 57 54 48 48 45 46 47 48 47 43 42 41 36 35 40 44 46 47 45 46
46 48 45 44 42 43 48 52 42 47 59 60 68 70 69 68 66 61 62 57 55 50 51 52 51 55 53 53 46 44 45 39 41 44 46 46 49 51
51 50 47 48 44 42 44 42 37 47 56 52 62 72 71 66 63 65 65 58 57 58 55 55 57 55 54 55 55 49 48 46 46 49 50 52 52 58
53 54 53 49 46 44 40 36 37 49 50 58 56 66 64 73 68 65 64 63 61 61 60 57 55 56 56 57 56 55 53 53 54 58 61 61 61 58
57 59 54 49 48 47 41 40 38 47 54 55 59 62 63 67 69 70 71 70 65 62 59 54 57 59 61 59 59 56 55 54 55 57 60 62 64 64
60 58 51 52 54 48 46 43 42 46 53 58 55 58 59 59 63 65 67 66 64 59 60 58 64 64 65 65 64 61 60 59 60 62 65 66 66 68
59 54 56 58 55 52 50 49 50 47 54 54 56 55 55 57 59 60 62 59 63 66 64 64 66 70 61 61 63 63 64 65 67 68 70 73 73 72
60 58 61 58 59 54 55 56 56 50 53 57 54 59 63 64 68 66 64 68 70 66 68 69 69 70 69 65 62 63 66 69 69 71 71 73 75 77
62 62 62 60 59 57 57 58 57 52 52 53 55 54 57 61 65 72 74 72 72 74 75 69 71 71 70 69 68 69 69 68 66 66 66 70 73 75
61 62 64 62 61 57 61 63 56 51 51 51 52 50 50 46 46 55 66 70 72 75 74 71 69 69 71 70 72 69 68 66 68 70 72 74 75 75
64 64 65 63 65 64 65 67 56 51 53 52 54 52 47 48 51 54 54 60 67 68 65 68 70 70 74 75 68 67 67 69 72 73 76 77 77 76
67 69 70 72 71 70 72 69 62 54 55 55 59 55 54 58 62 57 59 60 65 68 69 74 73 72 75 75 77 74 74 75 77 79 81 77 77 82
77 74 76 75 78 77 75 72 68 56 57 59 62 58 60 63 65 66 67 63 67 67 70 70 75 78 84 84 85 83 83 83 82 84 84 82 78 78
77 80 80 76 77 79 80 80 73 62 54 63 66 69 69 72 71 69 68 70 70 73 77 79 82 78 82 85 90 90 91 90 89 89 88 83 84 89
83 84 85 85 84 87 86 86 82 78 63 58 68 73 76 76 76 78 77 79 80 80 82 86 89 88 90 92 95 97 97 96 94 93 91 92 92 93
89 90 89 92 96 95 91 92 92 89 77 66 58 72 82 85 85 87 87 86 85 85 87 90 92 93 95 97 99 100 99 98 97 97 98 100 101 100
100 98 101 102 103 103 100 97 98 96 90 81 76 70 79 91 92 94 96 94 91 91 93 93 94 95 95 95 98 99 98 100 102 105 106 106 107 108
109 110 110 109 107 108 110 107 105 103 101 96 83 82 77 90 99 101 102 104 104 103 101 101 99 99 100 100 102 103 104 106 108 109 112 114 112 111
117 116 117 117 116 115 115 116 113 111 110 103 97 93 85 92 99 104 108 111 111 112 110 108 109 108 106 107 108 109 111 112 112 113 114 115 116 115
125 126 125 125 125 123 122 122 120 116 112 110 103 98 90 88 104 107 109 113 115 117 118 118 118 116 115 113 114 116 118 119 119 119 119 119 120 122
133 131 130 130 129 128 125 122 120 120 116 109 105 98 95 93 98 111 115 115 117 120 122 124 123 123 123 123 125 123 123 124 124 123 124 124 125 126
120 120 120 121 121 120 120 118 115 113 111 107 103 98 95 97 99 105 116 122 122 122 124 125 127 128 127 127 128 128 127 126 126 127 128 130 131 131

GFSNE_250_spd_117.txt.gz
Wind_Speed
46 40 48 49 44 42 39 38 37 39 41 44 46 45 43 66 68 71 66 61 62 62 53 50 48 49 46 42 44 43 40 42 40 39 36 34 43 53
48 42 42 46 43 43 42 43 42 44 44 51 55 54 50 64 73 73 75 65 67 66 58 57 53 52 52 49 48 49 43 45 46 46 41 37 36 41
52 44 41 43 44 43 44 47 47 47 49 54 54 53 48 58 74 77 70 73 68 69 68 62 60 56 55 53 50 51 51 52 52 50 47 45 41 40
49 48 44 43 45 45 49 49 49 50 52 48 45 42 44 56 64 67 77 76 69 68 66 65 61 59 55 53 55 53 53 54 54 54 52 48 47 47
50 49 43 49 51 53 52 51 50 53 54 43 42 39 43 50 60 63 69 75 74 69 65 66 65 60 60 59 57 57 58 59 54 53 52 53 51 52
53 51 48 52 56 58 59 57 56 56 55 44 35 37 43 53 56 61 68 73 75 76 71 70 66 64 63 62 62 64 59 56 57 58 58 57 54 54
58 59 55 58 62 61 61 59 59 58 56 48 40 35 39 54 61 61 57 71 76 72 72 70 69 67 66 68 66 64 60 60 62 64 61 62 62 59
55 60 63 64 64 66 64 61 60 61 62 53 50 46 43 49 63 66 65 59 64 72 79 77 72 71 72 69 67 66 61 63 66 65 65 61 60 59
62 69 71 71 70 68 65 64 67 64 58 54 55 51 46 50 56 66 67 66 64 65 71 76 77 76 71 68 62 61 67 70 67 67 62 66 65 62
67 72 73 72 73 70 66 67 64 67 59 55 56 54 49 50 53 60 63 63 60 58 60 64 66 67 67 65 67 71 67 69 69 72 74 74 72 71
71 74 73 73 72 70 67 67 69 60 58 58 57 55 52 51 51 60 61 60 61 64 66 67 67 68 70 68 68 69 74 74 73 75 76 75 72 75
74 73 68 69 71 72 70 70 64 64 61 59 59 59 57 51 51 56 58 61 61 64 69 78 77 75 70 74 76 75 76 78 82 82 80 80 76 77
73 74 74 73 76 76 74 72 72 70 67 66 62 65 63 51 52 54 55 56 51 50 48 52 57 60 65 72 83 79 80 77 77 73 80 78 78 78
82 84 83 78 75 78 78 77 76 75 72 70 70 68 68 60 50 53 55 59 53 55 59 55 59 57 69 71 75 74 77 81 83 84 86 87 87 88
85 87 86 84 83 82 83 84 83 79 78 76 73 71 67 70 56 49 56 64 62 63 63 65 68 69 71 69 71 78 78 82 80 81 86 92 93 95
87 86 87 88 90 90 89 90 90 89 85 83 78 77 75 73 66 60 55 66 69 73 73 74 77 74 76 78 82 81 84 89 90 90 92 93 92 94
90 93 94 94 94 96 96 95 96 97 91 89 86 86 82 79 79 73 63 59 73 77 76 83 82 81 81 82 84 82 91 92 92 95 95 97 101 102
100 100 99 102 104 103 104 105 102 100 101 100 95 94 91 91 86 85 84 68 63 73 85 88 89 93 93 89 89 89 89 93 98 99 101 104 107 108
109 110 111 111 111 110 110 110 111 111 109 109 107 103 99 98 97 95 94 89 83 75 76 80 94 101 102 100 99 103 103 103 104 106 106 108 109 110
115 115 116 116 117 118 118 116 117 117 116 115 111 110 108 106 107 107 105 101 98 85 82 82 82 88 102 109 110 108 107 106 107 109 111 111 112 113
127 128 129 129 129 128 127 127 126 126 124 122 122 119 118 119 117 115 115 113 111 107 107 93 90 91 90 103 115 119 118 117 118 118 117 117 117 118
134 134 135 135 135 135 134 134 132 132 131 130 129 127 126 126 129 126 122 121 119 116 110 104 96 97 95 96 112 121 123 124 124 123 124 126 127 127
137 136 137 135 133 131 132 134 135 136 136 136 134 135 134 133 133 131 128 128 126 121 117 113 109 107 104 102 107 122 129 132 131 132 132 131 130 130

GFSNE_250_spd_120.txt.gz
Wind_Speed
58 59 58 55 51 47 41 39 42 40 39 38 37 36 35 36 38 38 54 71 62 60 57 55 52 53 51 52 46 48 45 39 39 39 40 42 40 39
55 60 57 57 56 52 47 45 44 40 39 41 42 41 41 44 45 48 51 57 72 76 67 61 56 54 58 56 54 50 50 49 47 44 43 42 40 41
53 57 56 57 51 49 47 45 39 43 39 44 46 47 44 50 51 53 59 59 64 75 75 74 64 60 61 62 57 54 53 53 53 52 49 51 48 45
58 61 60 56 51 54 49 49 40 45 43 48 49 48 49 49 53 54 46 51 63 72 77 72 73 69 67 64 64 59 58 58 56 53 53 53 51 50
61 61 59 55 49 55 55 49 48 49 48 51 57 51 47 51 53 54 45 36 55 65 74 76 75 77 73 70 69 67 66 65 62 57 54 58 57 54
61 58 59 56 52 51 55 57 53 50 51 56 56 55 53 51 53 50 46 35 37 57 66 74 76 76 78 74 68 69 65 65 61 60 60 59 57 57
59 60 60 57 52 53 57 53 54 56 56 58 59 56 56 54 55 51 46 45 36 45 60 64 72 76 76 77 73 70 68 67 63 62 64 63 59 59
60 59 60 56 55 59 59 63 60 61 59 59 61 57 57 58 57 55 51 49 49 46 56 63 66 66 77 79 79 72 70 70 68 69 69 67 65 64
59 65 56 54 61 62 61 63 67 65 63 62 61 61 58 60 60 57 55 55 52 50 51 59 65 65 71 74 76 78 78 75 72 71 69 69 70 61
60 58 57 59 65 66 67 70 76 71 69 63 66 65 62 62 62 55 56 57 50 51 52 53 60 65 65 64 74 78 77 77 77 74 74 71 65 67
61 58 57 66 66 70 72 76 74 69 69 69 72 70 68 66 63 60 61 59 53 50 50 53 55 59 66 69 66 69 75 76 76 77 72 70 71 71
66 66 70 68 67 74 78 79 77 75 74 75 73 73 70 70 65 64 63 61 57 50 50 51 57 59 62 63 63 65 67 70 72 72 72 74 77 71
73 73 77 76 76 75 79 82 80 78 77 77 77 73 73 70 68 66 67 65 57 55 52 48 55 61 64 65 68 70 73 73 73 74 75 68 73 74
78 75 81 78 78 79 81 84 84 81 82 81 81 79 74 74 72 73 73 68 65 58 56 51 54 60 61 65 65 66 69 72 77 76 73 72 81 80
77 80 82 81 81 84 84 88 91 90 91 89 84 85 81 80 78 77 73 71 71 70 58 55 52 58 59 57 58 59 56 54 60 59 67 74 78 80
80 81 84 86 87 87 89 93 94 93 93 94 92 90 88 86 83 81 78 81 80 74 71 60 58 53 61 67 67 67 69 69 65 68 72 78 83 84
86 89 91 90 93 95 96 98 100 99 98 97 96 94 93 91 90 88 88 87 85 84 79 73 68 64 59 63 74 79 73 74 73 74 79 82 84 85
94 96 97 97 99 98 99 101 103 105 104 102 101 100 98 98 97 97 95 95 93 91 91 88 77 79 72 70 68 77 84 86 85 86 88 90 90 92
102 105 107 110 110 109 109 110 111 111 110 111 111 110 108 106 105 103 103 102 100 100 97 94 93 88 81 88 77 73 79 84 90 93 96 99 96 96
112 113 115 118 119 118 120 121 122 122 121 121 120 119 117 116 114 112 110 111 110 107 105 103 101 99 92 90 86 81 83 78 84 96 97 103 107 110
123 124 125 126 127 128 129 129 128 129 129 128 128 127 125 124 123 123 121 118 117 115 113 110 108 107 102 99 92 98 99 91 88 94 98 97 101 110
131 133 133 135 136 135 135 135 134 133 133 132 131 131 130 129 129 129 128 126 125 123 121 119 117 115 113 112 112 111 112 108 109 107 97 102 101 97
136 134 131 130 133 133 134 135 137 138 139 139 140 140 139 139 138 136 136 136 135 133 131 128 127 126 124 121 123 124 123 123 120 115 111 110 115 107

GFSNE_250_spd_123.txt.gz
Wind_Speed
69 34 65 76 76 65 56 56 56 51 45 42 41 41 37 35 33 32 32 26 42 53 48 55 55 55 51 50 49 50 49 46 42 44 41 43 38 35
62 73 82 80 78 62 58 59 57 53 52 51 46 42 43 42 40 35 35 36 36 36 42 46 61 67 65 59 55 55 54 53 50 47 43 46 47 46
66 73 74 70 58 61 61 61 57 55 53 50 46 44 47 48 46 42 40 41 41 43 44 50 54 63 73 69 61 60 61 58 57 54 52 50 50 54
71 75 74 69 52 61 60 59 64 54 57 52 52 49 50 50 48 43 43 43 43 45 48 50 51 53 66 70 70 66 65 61 58 58 54 56 54 52
77 74 71 67 64 58 64 60 64 57 62 59 55 52 50 52 47 48 49 49 45 46 47 46 46 43 64 71 70 74 72 66 62 60 59 59 59 59
50 53 59 63 61 60 62 67 64 58 59 64 64 60 60 55 48 48 51 56 50 47 48 46 44 37 43 62 72 73 74 75 73 71 67 64 65 64
53 53 56 62 58 62 64 67 67 62 65 65 66 65 63 62 57 52 51 55 51 48 48 48 48 41 40 45 59 71 74 76 75 74 72 70 67 67
52 56 52 51 57 70 63 68 65 70 71 69 72 70 66 64 62 57 53 56 49 52 51 51 49 48 49 48 50 58 70 77 76 79 78 74 71 69
49 51 63 58 63 66 65 72 67 67 72 71 72 75 74 72 68 66 57 56 56 55 52 53 54 51 51 50 52 59 63 67 72 78 79 79 74 74
54 56 57 57 55 63 70 76 67 69 68 71 77 77 77 71 69 63 61 59 60 60 55 52 59 57 52 54 52 55 64 65 68 68 73 78 79 79
56 50 54 55 54 58 68 75 72 75 80 80 80 79 78 72 69 67 67 63 61 65 64 58 59 62 56 53 53 53 59 66 65 65 69 69 74 76
48 45 52 56 49 50 66 73 76 80 81 83 83 82 80 76 73 73 71 69 67 67 69 63 60 63 60 56 52 53 54 60 66 69 69 65 70 79
62 56 55 52 60 61 66 80 81 82 86 84 83 85 83 82 81 79 77 75 71 70 70 66 65 67 64 62 54 53 54 59 62 64 66 69 71 72
71 65 67 60 76 84 77 87 85 82 82 84 85 86 84 86 86 82 80 79 77 74 73 71 71 69 69 64 61 55 56 56 63 65 67 68 70 72
71 73 75 70 78 83 80 85 90 89 89 88 88 85 89 90 90 88 85 83 81 79 78 76 80 73 71 70 65 64 59 59 60 63 68 70 70 71
73 78 84 81 80 83 87 90 91 93 93 93 93 94 94 95 94 93 90 88 86 84 80 83 82 78 74 72 70 68 67 64 58 62 65 70 72 73
81 81 87 86 87 89 94 94 95 97 96 96 98 98 98 100 101 100 98 96 92 91 90 89 87 86 82 80 78 76 73 72 71 64 63 67 73 75
84 88 91 94 97 99 99 100 104 103 104 105 106 107 107 108 108 106 103 100 96 95 93 93 93 92 90 89 86 83 79 78 83 77 77 71 73 75
101 101 101 106 107 109 109 108 112 110 112 113 117 117 116 116 115 113 112 108 106 105 105 101 100 98 97 93 93 93 90 88 86 87 81 84 78 81
107 108 111 113 115 117 118 120 122 122 124 124 124 125 124 124 124 123 121 121 119 115 112 111 108 105 103 103 103 101 98 99 99 94 93 93 89 86
114 117 119 123 123 125 126 128 129 130 129 129 128 128 130 132 134 134 134 132 130 127 125 123 120 116 113 111 109 108 106 105 104 104 104 101 101 100
122 121 123 126 128 131 133 134 135 136 135 136 135 133 132 131 132 132 132 131 131 132 131 128 126 124 122 120 118 115 115 115 114 115 113 109 109 106
123 125 126 126 125 127 129 127 129 128 128 131 132 134 133 133 132 136 137 137 137 135 134 133 133 133 133 132 130 126 122 121 122 122 120 117 113 113

GFSNE_250_spd_126.txt.gz
Wind_Speed
70 68 79 64 64 65 57 55 56 60 58 62 50 53 50 49 46 43 41 37 31 30 34 43 41 43 46 44 46 49 52 53 51 49 46 41 43 38
74 76 82 66 60 71 57 60 64 58 55 61 63 58 56 55 49 43 40 41 38 37 33 34 40 38 37 43 49 53 55 57 55 52 52 46 53 48
76 67 77 70 69 60 60 65 66 61 58 63 60 59 64 61 58 52 49 46 44 42 40 37 34 40 39 37 48 52 57 64 69 61 57 57 58 55
75 71 80 71 66 64 55 57 62 68 68 61 62 63 68 65 62 60 59 55 46 47 47 46 42 42 40 44 44 48 58 67 68 72 70 60 62 60
83 83 80 61 70 76 77 72 71 72 74 69 60 64 67 69 67 63 64 57 50 50 49 47 47 46 46 45 45 46 42 56 65 71 71 72 67 63
81 78 73 74 65 76 77 78 71 76 75 75 70 69 69 70 70 66 64 61 56 53 50 49 48 51 51 47 46 40 41 34 59 67 71 72 69 68
81 84 86 75 62 69 70 67 67 70 72 71 72 70 76 72 71 70 69 67 62 56 57 53 50 48 52 51 47 44 41 35 33 54 68 72 73 71
81 88 88 90 64 59 65 62 66 67 76 77 69 70 76 73 74 68 67 66 65 62 62 61 54 49 52 52 48 47 45 43 39 42 48 66 75 77
87 90 79 70 63 57 58 60 63 67 64 68 69 70 71 75 77 72 68 71 70 68 63 60 61 55 55 55 49 49 48 47 48 47 48 54 64 70
80 72 66 64 58 49 49 47 62 63 60 71 72 74 77 78 83 81 75 72 73 74 67 59 66 64 58 58 57 54 54 54 52 53 52 51 58 67
63 65 63 51 61 58 57 58 61 63 61 75 79 81 80 83 86 89 88 82 80 80 75 69 68 64 62 61 62 59 58 57 57 56 55 52 53 63
77 72 66 61 63 70 71 62 75 76 78 78 71 81 82 87 89 90 90 90 85 81 82 76 74 71 67 64 66 64 61 61 61 60 59 53 51 53
68 70 73 67 69 70 70 73 72 67 73 71 75 83 82 85 90 90 91 90 87 86 83 80 78 78 73 70 71 71 70 65 64 62 63 59 54 51
70 75 76 70 67 71 72 77 76 80 75 79 79 76 78 87 91 92 91 91 90 91 89 86 84 81 77 73 74 74 75 70 69 66 64 64 61 55
76 83 80 77 75 74 74 77 75 80 81 80 80 80 82 87 89 92 92 95 94 93 93 90 88 86 83 79 75 76 78 74 75 73 70 66 64 61
82 81 84 85 85 82 82 83 85 85 87 87 85 90 89 92 94 94 96 96 97 98 95 92 91 88 85 83 83 81 80 77 80 79 74 72 69 68
89 90 89 88 88 91 94 94 93 93 90 91 95 98 101 102 100 103 102 101 102 102 102 103 97 91 88 85 84 85 85 81 83 86 83 80 78 75
91 90 93 97 99 100 99 102 99 100 100 103 105 108 110 111 111 112 113 110 110 110 112 109 106 103 100 95 92 92 90 90 90 90 90 88 84 84
93 94 98 102 107 108 110 111 112 111 114 111 116 116 116 120 120 123 120 120 116 115 116 118 117 115 112 108 104 101 99 99 97 97 97 94 91 89
99 102 105 108 111 116 119 120 121 122 123 125 123 124 129 126 128 130 130 128 124 123 121 121 122 121 119 116 113 110 107 105 104 101 100 100 99 96
105 108 112 114 119 121 122 125 127 130 130 128 129 130 133 137 138 137 137 136 134 131 127 129 128 126 126 125 123 121 119 116 114 112 108 107 108 107
113 116 118 118 119 122 125 127 131 132 133 134 134 134 135 136 136 136 138 140 140 138 136 136 135 132 130 131 131 128 125 124 121 117 115 113 110 110
105 111 114 117 122 125 126 127 129 131 132 131 134 135 136 136 139 142 141 140 140 139 136 135 137 135 132 136 136 135 133 131 127 124 123 122 120 119

GFSNE_250_spd_129.txt.gz
Wind_Speed
90 85 84 79 73 57 61 66 60 56 65 59 65 58 55 47 45 38 42 51 48 45 44 37 34 32 33 32 39 37 45 47 45 43 46 47 48 48
100 93 85 86 78 73 64 59 54 59 58 71 68 70 61 52 50 49 42 50 52 48 46 42 37 34 40 40 41 41 44 43 46 48 51 51 56 57
106 96 89 93 87 79 75 70 67 73 69 69 77 71 64 61 56 54 47 48 57 53 50 43 44 40 38 45 44 39 37 37 37 46 50 51 55 59
106 102 89 95 88 88 82 80 79 69 78 72 75 73 68 64 62 64 51 51 52 59 56 55 48 47 45 40 38 39 40 41 44 42 48 51 62 65
105 103 94 97 96 95 85 79 77 78 68 67 73 77 78 77 73 67 65 55 55 58 62 61 58 56 55 52 48 47 47 47 43 44 47 48 56 69
96 99 96 101 99 95 96 96 85 86 76 76 73 78 78 72 68 65 69 71 65 60 62 64 61 59 61 62 57 56 55 51 50 49 48 43 44 46
88 93 95 99 97 98 95 93 89 86 84 82 77 65 64 73 66 68 69 73 69 62 64 68 63 61 59 62 58 58 56 54 51 50 49 46 36 33
75 81 86 91 99 92 101 89 88 90 95 79 85 70 74 71 66 71 75 76 74 68 65 69 68 68 64 62 65 63 62 57 55 53 50 46 37 35
60 68 76 84 87 90 96 87 89 89 99 96 92 91 78 74 79 74 78 80 78 76 70 74 73 69 67 66 64 64 64 62 62 55 54 52 46 41
50 56 60 74 85 85 88 90 95 92 92 91 93 92 85 80 79 79 80 79 83 84 75 74 76 73 69 68 66 64 67 67 65 62 59 55 52 48
43 48 56 64 76 83 89 93 98 86 87 79 81 85 82 73 81 83 74 70 76 78 78 75 78 79 78 74 70 71 70 68 65 67 64 60 59 57
40 47 54 64 76 87 90 97 97 93 76 81 79 81 79 77 78 78 80 81 78 78 76 80 81 83 80 76 75 75 76 76 73 69 67 64 62 61
37 43 55 64 74 88 94 97 95 93 86 86 84 84 81 87 83 86 85 81 86 83 78 81 85 85 84 88 87 79 80 81 82 77 72 69 66 66
39 46 51 56 68 83 93 98 93 101 100 93 87 85 83 90 86 90 90 88 88 91 89 85 85 86 87 88 90 92 87 81 84 83 78 76 74 72
47 49 52 59 68 76 82 88 91 90 91 90 87 87 91 88 93 91 97 99 94 95 94 96 91 89 88 89 93 90 88 87 85 85 85 83 80 78
58 56 59 64 69 81 83 85 89 89 92 94 96 94 93 96 97 99 102 107 111 106 105 104 98 97 94 90 90 95 96 95 90 89 88 88 87 83
71 69 69 72 77 86 92 93 91 96 99 100 102 104 104 104 103 103 102 107 110 112 111 108 106 100 99 100 98 95 96 98 97 97 94 92 92 89
81 83 85 85 86 92 94 97 103 104 105 108 108 110 113 114 113 112 111 113 116 117 116 111 109 107 103 104 104 101 102 101 101 100 99 98 96 95
89 88 90 98 98 99 103 106 106 108 109 112 117 119 121 120 118 121 122 122 121 118 117 117 117 115 112 109 110 110 109 107 106 105 105 104 101 97
88 98 97 98 104 111 113 115 115 117 119 121 123 125 125 129 131 130 129 127 125 124 123 121 121 121 118 117 118 116 118 116 113 112 112 112 111 108
94 93 98 104 108 111 113 118 122 124 128 130 132 133 134 135 133 134 132 132 131 130 130 129 129 128 126 125 127 126 126 126 126 124 122 119 115 112
87 94 99 101 102 105 108 116 124 128 129 129 131 135 135 136 137 137 138 139 140 140 137 137 137 135 134 134 132 133 132 130 131 134 132 130 130 127
87 89 92 97 100 104 110 115 116 116 116 118 121 123 127 134 137 139 138 135 135 137 136 138 138 137 139 142 142 139 137 139 138 136 136 138 135 134

GFSNE_250_spd_132.txt.gz
Wind_Speed
98 89 80 67 38 70 61 79 71 65 61 48 60 51 54 59 49 44 46 47 43 40 36 35 36 40 38 35 33 31 26 34 42 40 41 40 38 40
104 103 94 93 71 77 75 75 77 76 67 63 58 56 59 59 51 51 48 50 42 42 43 38 38 41 40 38 38 36 37 36 33 36 39 43 47 47
111 106 104 104 103 90 85 80 83 82 71 73 65 63 60 62 67 61 60 54 47 49 47 44 39 39 43 39 41 41 38 41 41 40 38 43 43 45
113 111 108 112 112 109 103 95 93 89 83 78 76 65 60 60 66 70 66 64 60 55 54 50 46 43 43 46 44 45 45 43 50 51 48 43 39 38
112 117 113 114 113 114 113 109 102 98 95 89 74 72 64 69 69 66 68 69 67 66 56 56 58 53 45 47 52 52 50 48 46 46 46 45 43 42
107 112 117 117 115 116 114 113 112 104 103 100 90 85 82 75 83 80 75 71 67 64 65 63 64 56 52 55 51 56 56 56 55 55 51 51 50 51
94 102 108 112 117 119 117 114 112 110 109 106 98 97 93 89 83 80 80 77 75 70 72 75 67 67 57 56 55 56 60 61 59 55 59 59 60 61
81 87 97 105 113 113 114 115 116 113 112 111 104 101 99 94 90 85 83 81 82 75 67 72 75 64 64 64 62 58 59 63 63 61 58 59 60 61
69 74 82 90 98 104 108 110 112 112 112 112 110 105 104 100 95 92 86 89 91 88 78 79 78 68 68 67 65 65 61 63 66 67 64 61 62 63
51 56 62 71 82 90 96 100 102 104 105 105 109 109 106 102 98 97 91 90 86 85 78 83 78 74 74 74 75 74 70 69 72 72 69 66 64 61
40 47 51 57 65 73 80 87 93 96 98 101 103 104 104 102 94 94 80 95 91 87 81 75 72 76 79 81 81 74 68 74 75 73 70 66 65 66
30 36 44 48 56 63 73 79 85 88 90 96 99 106 109 107 93 95 98 102 97 96 92 93 92 85 86 86 88 78 73 71 71 73 72 69 68 69
35 35 39 43 50 57 64 67 72 78 84 87 97 105 110 103 98 95 100 99 101 98 94 92 93 89 84 89 89 84 78 79 75 71 73 73 72 74
40 36 35 40 40 46 51 56 62 68 75 85 92 95 97 100 103 102 101 93 106 111 103 95 95 99 97 95 95 92 90 83 77 77 75 76 78 76
46 44 41 42 44 41 42 47 52 61 71 80 87 92 94 98 100 105 105 102 104 106 109 105 105 105 108 105 101 101 98 94 91 83 78 79 80 82
55 55 52 54 52 52 50 51 53 61 68 78 86 92 98 99 104 103 106 108 107 110 108 106 108 108 109 107 104 102 101 99 100 93 87 82 80 85
62 66 65 63 64 63 63 59 60 66 68 76 88 94 99 100 105 109 108 108 108 108 109 108 112 116 114 114 113 109 104 102 103 103 97 97 94 90
71 71 76 76 73 74 74 74 73 73 75 80 87 92 98 102 107 113 120 118 116 113 115 114 112 113 115 115 118 115 109 108 109 110 110 108 105 98
79 78 78 81 83 83 83 85 86 85 86 87 94 98 102 107 110 117 122 123 128 128 128 126 123 123 121 120 119 118 119 118 115 108 108 109 107 106
84 84 84 85 84 84 88 89 93 97 96 97 101 106 110 114 118 121 119 129 127 131 133 130 127 124 122 122 121 122 122 123 120 115 113 116 117 114
76 85 87 85 85 85 87 87 92 98 105 106 108 113 115 120 124 128 130 131 134 136 135 132 132 131 131 130 131 133 128 125 124 124 127 126 124 124
67 71 78 81 81 84 87 88 90 94 98 105 113 120 121 125 128 130 133 136 135 136 139 140 140 139 139 138 137 135 133 132 134 134 134 133 130 127
66 66 68 72 77 81 85 87 91 95 97 100 101 108 114 122 133 136 138 137 135 137 137 140 141 140 141 140 139 141 145 145 140 137 134 133 131 129

GFSNE_250_spd_138.txt.gz
Wind_Speed
93 103 119 127 125 120 107 102 84 82 72 73 70 70 66 59 61 65 58 55 49 45 48 43 48 41 43 37 32 32 30 27 26 23 20 20 21 23
82 91 107 123 131 130 119 109 91 83 77 73 73 68 67 66 68 69 64 59 63 58 57 51 49 49 41 38 41 34 35 27 23 23 22 24 22 27
78 82 94 111 134 133 122 114 98 87 85 82 78 74 74 76 80 75 71 71 65 65 62 59 50 54 48 45 49 46 40 32 34 32 27 28 24 27
65 72 82 98 122 136 126 118 102 97 90 88 82 73 75 85 83 83 76 74 69 71 71 66 64 58 56 53 53 48 47 44 47 44 33 30 25 25
57 64 75 86 94 130 129 124 113 100 99 90 82 87 81 86 83 81 77 78 72 70 63 61 63 63 64 61 57 60 58 60 57 45 43 42 36 35
45 54 66 76 82 99 130 125 116 106 102 105 97 94 87 86 88 85 87 83 82 78 74 67 65 65 63 66 65 62 60 63 63 60 49 48 50 50
35 45 55 63 72 82 103 125 125 114 109 109 104 100 98 89 90 88 90 89 89 76 80 74 73 73 67 66 66 66 61 62 61 60 60 58 57 60
22 32 44 54 63 76 93 109 115 116 111 111 109 106 101 100 98 91 92 96 97 92 83 85 84 83 78 73 70 69 62 66 65 66 64 65 67 57
13 20 31 44 57 71 87 106 112 117 115 114 112 112 110 105 104 107 103 102 104 103 102 93 93 94 91 82 78 75 72 72 68 70 72 71 63 60
15 17 19 31 50 64 77 97 113 119 122 119 117 117 119 116 113 112 112 108 110 102 99 96 96 97 96 95 90 87 82 81 83 80 75 75 72 68
20 21 24 29 38 56 70 83 106 115 121 126 124 122 123 124 123 119 117 116 114 117 113 113 109 105 105 101 93 92 92 94 96 97 93 88 85 85
24 27 28 31 37 44 57 75 88 105 117 124 129 130 130 125 124 126 124 124 123 124 122 122 123 119 116 116 115 114 114 111 111 104 103 95 97 98
33 34 33 35 39 41 50 60 78 90 104 121 128 134 137 138 136 133 131 131 130 131 131 130 130 130 130 127 122 121 120 120 120 120 117 114 110 102
41 43 45 45 44 47 52 57 65 76 88 99 116 132 139 141 143 142 140 141 140 140 140 139 139 139 138 137 136 136 133 133 130 124 118 115 113 108
52 52 52 55 56 56 56 57 64 68 73 84 93 104 120 133 141 147 149 151 151 152 153 152 150 149 150 149 146 145 144 142 137 131 126 125 117 109
65 65 65 65 67 68 68 68 68 68 71 74 81 88 94 101 110 119 128 136 142 147 153 155 154 152 153 152 153 151 150 149 145 136 136 131 129 121
77 78 78 77 77 77 77 77 76 75 76 78 80 83 86 90 97 102 107 112 117 121 125 129 131 134 138 140 138 135 135 134 131 129 128 130 126 120
77 77 79 79 82 81 81 81 83 84 84 83 82 82 84 87 89 91 96 100 104 105 107 108 109 109 112 115 117 118 118 124 122 122 123 123 121 119
76 76 78 78 79 79 77 74 74 78 81 85 87 89 89 88 88 88 89 90 93 94 94 94 97 98 97 98 102 104 106 110 110 110 112 115 121 119
73 74 76 77 76 74 72 68 69 70 73 75 79 83 87 90 92 93 92 91 89 89 90 89 89 91 92 93 94 96 97 100 102 103 104 107 113 115
71 73 75 76 75 73 70 68 68 68 70 71 73 77 81 84 87 90 94 95 95 94 91 91 88 88 87 88 89 91 93 95 97 98 100 103 106 113
71 72 73 72 71 69 69 69 69 69 68 68 69 71 73 77 82 85 87 92 95 97 97 96 93 91 90 89 88 89 90 90 94 95 97 101 104 108
70 70 70 69 68 67 67 67 67 67 67 68 69 70 71 72 75 80 83 84 88 92 95 98 98 99 98 95 94 94 92 92 92 93 96 98 101 102

GFSNE_250_spd_141.txt.gz
Wind_Speed
74 84 89 101 111 117 123 120 121 114 103 96 85 81 76 79 75 74 67 65 62 57 54 54 52 54 54 52 48 42 44 45 42 30 33 18 17 18
66 72 77 86 99 114 123 123 126 124 110 105 98 92 84 82 79 74 74 72 66 69 64 61 63 59 56 58 53 43 47 44 44 37 33 24 20 19
55 64 67 75 88 99 114 128 128 130 122 118 109 100 90 84 87 80 79 72 70 66 75 70 69 63 60 61 61 59 55 49 47 44 39 37 28 29
43 53 61 69 78 87 105 118 127 129 129 123 115 107 95 88 87 86 80 75 72 69 66 74 71 69 65 64 65 64 59 51 47 44 48 44 49 36
37 42 50 59 68 78 88 94 119 126 129 126 128 109 104 96 89 85 82 79 78 83 86 83 79 77 71 70 75 73 70 61 62 52 51 53 52 50
29 35 41 48 56 66 77 84 92 113 125 128 126 119 114 102 92 91 93 90 89 82 85 88 90 88 84 84 77 75 73 74 66 62 61 57 59 59
13 20 28 36 45 53 64 70 78 89 112 121 126 126 120 110 102 97 97 94 96 92 91 90 85 85 85 88 85 80 75 72 70 69 67 63 63 67
6 7 12 20 28 38 49 59 67 76 90 101 120 126 124 115 106 106 100 99 102 97 96 98 94 91 86 86 83 81 79 72 73 73 69 68 68 65
10 11 9 9 14 23 34 44 54 64 76 91 107 122 123 120 113 109 107 109 102 97 100 98 94 92 99 94 88 88 89 86 86 80 78 72 71 71
16 17 18 15 12 15 23 32 43 54 65 79 95 104 112 120 122 117 114 113 111 104 100 99 95 95 97 94 90 91 86 84 89 89 88 84 79 73
16 17 19 20 19 18 20 27 36 44 58 71 85 99 110 119 118 123 123 118 114 114 111 108 104 105 103 101 102 99 94 91 85 80 81 81 83 81
23 23 23 25 25 25 25 26 31 42 54 65 77 91 105 116 122 128 125 124 122 119 118 115 112 109 107 104 106 108 103 104 103 103 103 99 92 88
33 33 33 33 33 33 33 34 35 39 48 62 75 86 99 113 122 128 130 131 133 129 128 125 124 120 114 112 112 114 113 112 113 109 108 108 105 103
40 41 41 41 42 43 44 44 43 46 49 56 69 83 93 105 122 131 135 137 139 138 134 133 130 131 128 127 126 124 120 120 120 118 119 121 115 111
54 54 55 54 52 53 54 54 56 56 57 58 65 74 88 100 114 127 139 143 144 145 142 142 141 137 135 136 133 134 136 135 133 132 129 129 127 121
65 65 65 67 68 69 70 71 70 69 71 72 72 75 82 92 103 122 134 148 149 151 149 147 147 147 146 145 142 142 142 140 139 139 138 136 136 137
69 71 74 78 80 82 81 77 78 80 80 81 82 84 87 90 96 105 113 136 151 154 155 153 154 152 151 152 151 151 150 151 149 148 146 145 144 143
72 73 76 78 80 81 79 78 78 80 82 84 86 87 88 89 95 101 105 111 119 130 148 158 161 161 159 157 157 156 156 155 155 155 154 152 153 148
69 70 72 74 76 77 78 75 75 76 74 74 78 81 83 85 88 91 96 105 112 113 118 125 130 136 147 156 161 161 162 164 164 164 163 162 163 163
68 68 70 73 75 75 75 74 73 72 72 70 69 69 72 77 82 87 92 97 101 107 114 119 121 122 124 126 129 135 138 141 144 146 145 141 141 142
67 68 70 71 72 73 73 74 73 72 71 68 67 67 69 72 77 82 86 88 91 96 101 105 109 115 121 122 123 124 123 121 123 124 125 124 123 121
70 71 71 71 72 73 73 72 71 70 68 68 68 69 69 70 72 75 78 81 84 88 92 96 98 100 103 106 109 116 120 120 118 118 116 114 111 109
72 70 69 70 71 71 70 70 68 68 68 67 67 67 68 69 70 70 73 76 79 82 86 89 91 92 95 96 97 101 104 107 110 111 112 112 110 106

GFSNE_250_spd_147.txt.gz
Wind_Speed
54 59 63 68 72 74 78 87 98 106 107 111 117 116 114 112 106 99 92 94 86 74 68 61 66 66 64 61 59 59 59 56 56 53 50 44 42 37
44 49 54 59 62 69 75 80 89 101 109 111 116 123 118 116 115 105 100 101 91 84 75 65 68 65 62 64 62 61 61 63 62 58 55 51 47 43
34 37 42 47 53 61 67 74 82 91 101 112 118 116 117 120 119 115 105 104 100 92 83 76 73 70 64 46 69 67 64 69 67 59 59 59 55 51
26 29 34 38 43 50 58 67 76 84 92 105 108 110 114 122 124 120 114 110 108 102 96 89 83 77 71 73 78 67 67 73 73 72 65 65 60 56
18 22 25 30 35 42 48 55 64 73 82 88 99 105 111 122 127 122 121 115 114 108 104 101 92 88 80 74 73 75 71 67 81 80 76 73 67 64
7 13 19 23 29 34 40 44 50 59 69 79 87 97 104 120 128 125 124 123 120 119 114 110 102 98 93 96 93 92 93 90 84 83 78 76 75 69
9 10 11 12 18 25 31 35 40 48 57 65 75 85 100 108 118 125 126 125 125 122 123 116 113 104 103 98 96 98 99 98 96 92 89 83 79 77
6 7 9 9 10 13 18 24 30 36 40 50 58 70 86 101 110 118 124 129 131 130 129 127 113 109 109 107 106 102 101 99 99 96 93 88 84 86
13 10 11 11 11 13 13 14 19 26 30 37 48 58 70 86 100 109 117 124 128 131 135 133 128 121 116 116 114 107 105 100 101 99 100 100 98 93
16 16 14 13 13 13 15 16 16 17 22 29 38 46 56 68 82 97 109 119 123 130 135 138 135 137 127 118 122 117 114 111 107 107 103 103 104 103
20 20 21 21 20 19 19 17 17 19 19 22 30 36 45 52 65 79 94 110 122 128 133 135 140 140 137 138 129 121 121 118 115 113 110 108 111 111
29 29 28 28 27 26 27 27 27 27 27 26 27 28 34 43 51 65 76 89 102 115 130 135 138 142 144 142 141 133 128 123 122 121 120 117 116 117
36 35 34 33 33 33 34 34 35 36 37 37 37 37 37 39 45 52 62 74 88 97 108 119 133 138 144 146 146 146 144 132 129 128 127 125 124 124
43 42 41 41 41 41 42 43 44 45 46 47 49 49 49 49 50 51 57 62 71 85 95 104 111 124 139 144 150 150 149 144 146 140 131 132 129 127
50 52 52 52 51 51 53 52 52 55 57 58 59 60 60 61 62 61 63 63 68 74 83 93 104 114 120 130 139 146 147 150 151 150 146 143 136 134
58 59 60 61 62 60 59 63 64 68 69 69 72 74 74 74 74 74 74 74 74 76 80 87 95 105 116 121 126 133 139 147 152 153 154 153 152 144
66 67 68 69 71 73 73 75 75 75 77 79 81 82 83 83 82 83 86 86 86 85 86 90 93 101 108 117 125 128 132 137 142 150 152 155 153 154
72 71 72 76 78 78 77 77 77 77 78 79 80 82 84 85 85 84 85 87 90 93 94 94 97 101 106 113 119 127 131 132 134 139 145 148 153 154
75 78 78 78 80 79 77 76 73 74 75 75 75 77 78 80 82 83 82 83 85 87 92 96 99 102 106 111 115 118 125 127 130 134 136 138 141 149
82 83 83 80 78 79 79 78 76 76 73 73 74 75 75 76 78 79 81 81 82 82 84 89 94 96 99 106 113 116 114 118 122 125 129 132 137 139
82 81 82 82 82 82 81 80 79 79 77 77 76 75 75 75 76 77 78 80 79 80 82 84 87 91 94 96 99 108 115 109 112 118 123 124 124 128
78 79 80 80 80 79 79 80 80 79 78 78 77 76 75 74 74 76 76 76 75 76 78 80 83 87 90 92 97 99 102 106 104 107 114 118 122 125
73 74 75 76 77 78 78 78 79 78 78 77 76 75 74 73 72 72 72 71 72 74 75 77 80 82 86 88 91 94 98 100 99 98 99 104 111 116

GFSNE_250_spd_150.txt.gz
Wind_Speed
36 40 46 52 59 68 78 89 99 107 108 110 112 114 115 112 111 110 111 100 104 99 93 84 80 75 70 71 70 68 66 61 59 57 54 52 54 51
29 32 38 45 50 57 66 76 84 96 106 111 116 116 114 117 115 112 115 109 106 108 102 92 86 83 78 70 68 67 67 68 67 66 61 59 58 58
24 25 28 36 43 48 56 65 74 82 93 100 106 112 114 116 118 120 119 117 110 110 110 101 90 86 86 79 73 67 68 72 70 68 67 65 65 62
17 21 23 27 35 42 48 56 63 72 80 88 94 102 106 112 117 120 123 120 118 113 114 110 101 93 87 80 83 80 74 73 74 72 72 68 67 72
11 13 15 19 26 34 40 48 55 64 72 79 83 92 99 105 112 118 121 122 121 117 116 116 113 97 97 95 90 89 85 80 74 74 75 76 72 74
11 11 9 10 18 26 33 40 47 54 60 67 74 82 91 101 107 113 115 117 120 120 118 119 116 111 105 103 105 100 93 87 78 78 76 74 76 74
12 10 10 9 6 13 23 30 38 44 50 56 64 71 80 89 98 103 110 113 117 121 123 121 121 119 112 110 108 109 105 95 93 86 86 72 70 80
13 10 9 7 9 6 10 16 26 33 39 45 53 60 68 75 84 95 102 109 112 112 120 123 123 125 117 117 114 114 111 102 98 97 95 91 85 92
16 14 13 12 12 9 9 11 13 17 27 36 43 47 52 60 67 75 89 100 108 113 116 122 126 126 127 120 120 116 117 116 110 108 109 100 97 103
22 21 17 13 14 14 12 12 12 14 17 20 25 34 40 47 51 60 70 81 94 107 114 120 126 129 130 129 129 125 124 121 121 117 114 113 107 107
26 24 22 22 20 19 19 19 18 18 18 19 19 23 25 28 39 48 58 66 77 89 103 114 122 127 131 132 134 134 132 129 126 125 125 120 121 120
35 33 31 30 28 27 28 27 28 28 27 26 27 27 28 29 33 36 42 52 65 76 89 101 114 124 129 134 135 138 138 141 135 132 131 128 125 127
41 42 41 37 37 36 35 36 35 36 35 35 36 36 36 37 38 37 41 44 50 62 76 90 103 112 121 129 135 138 141 141 142 142 140 140 138 133
43 44 44 45 44 44 44 44 45 44 43 45 46 46 47 48 48 49 49 50 53 56 64 75 91 103 114 121 129 136 142 144 147 147 149 147 145 145
55 54 53 52 52 51 49 50 50 51 54 55 56 56 57 59 60 60 61 62 62 62 65 70 77 87 102 114 123 130 139 142 145 148 153 157 160 153
60 60 59 58 56 56 58 60 61 63 64 65 66 67 67 68 71 73 74 75 74 75 75 77 79 84 90 99 112 123 132 139 142 146 151 154 156 160
67 65 61 61 63 65 67 70 72 73 72 71 73 74 76 79 82 83 84 85 85 84 86 89 90 91 94 97 103 110 120 129 137 144 148 153 155 154
69 69 69 71 71 73 76 79 79 78 77 78 78 79 79 80 80 81 84 86 88 89 90 92 93 96 98 101 104 107 113 119 127 133 138 143 149 153
70 72 76 79 80 80 80 80 79 79 78 78 76 75 76 77 77 79 80 83 85 87 90 90 91 92 94 98 104 105 110 114 117 122 127 133 135 139
70 74 78 80 79 80 81 81 80 79 78 78 78 78 78 78 78 77 77 78 79 81 84 86 89 91 93 95 99 103 101 107 114 115 117 120 124 126
70 73 75 76 76 77 78 78 78 78 79 79 79 79 79 78 77 77 78 78 79 80 82 84 86 87 89 91 94 98 103 100 99 104 109 112 114 114
73 74 74 74 75 76 76 77 77 78 78 78 79 79 79 79 79 79 79 79 79 80 81 81 82 83 83 85 87 90 95 99 99 98 99 100 102 108
73 73 73 74 75 75 75 77 78 79 80 80 80 79 78 78 78 77 78 77 77 77 77 78 79 79 80 80 81 84 87 91 94 95 95 95 97 97